Showing default

GOES 13, 29155

Orbit data source: Space-Track

GOES 13, 29155 is a payload satellite owned by NOAA (US) that was launched on Wed, 24 May 2006 UTC via a DELTA 4M+(4,2) launch vehicle from the Air Force Eastern Test Range (AFETR). Payloads include a variety of satellites, spacecraft, and rockets equipped with specific instruments for various scientific and technological missions. These include communications satellites like Starlink; space stations such as the ISS; scientific satellites like the Hubble; Earth observation satellites from companies like Planet Labs, Umbra, and HawkEye 360; GPS; miniature CubeSats for education and research; and military/defense satellites.

Loading next visibility...
GOES 13 details
Identifier
29155, 2006-018A
Orbit
Active
Last TLE update14 hours ago
Origin
Flag of USNOAA (US)
ManufacturerBoeing/ES
MissionOn reserve Civil Weather
Bus & MotorHS-601, R-4D-11-300
Mass3,209 kg wet, 1,543 kg dry
Launch date (UTC)
2006-05-24 (18 years ago)
Launch vehicle
DELTA 4M+(4,2)
Launch site
Air Force Eastern Test Range (AFETR)
Object type
Payload
Rocket body
Debris
Shape & HBRBox + 1 Pan + 1 Ant, 10 m
Radar Cross Section30.033 m², Large (>1 m²)

Expand to show TLE details & history

TLE from 14 hours ago
0 GOES 13
1 29155U 06018A   24325.69340848 -.00000032  00000-0  00000-0 0  9991
2 29155   3.0351  83.3794 0063597 256.3024 175.5547  0.98831501 37584
Epoch: 2024-11-20T16:38Z
Definitive object data (Epoch: 2024-11-20T16:38:30.492Z)
Latitude2.88008°
Longitude-154.55575°
Altitude36,463.215 km
Speed3.041 km/s
True Right ascension10h 21m 01s
True Declination2° 52' 38"
Sunlit
Object was in daylight at TLE epoch
Visualization TLE readout
Latitude-2.98278°
Longitude53.07793°
Altitude35,946.834 km
Speed3.078 km/s
Apparent Right ascension23h 49m 02s
Apparent Declination-9° 01' 52"
Sunlit
Object is in daylight
Visualization observer readout
Local Sidereal Time03:40:20
Azimuth241.291° WSW
Elevation17.616°
Doppler factor1
Orbital elements
Apogee altitude36,467.071 km
Perigee altitude35,925.55 km
Semi-major axis42,574.448 km
Eccentricity0.0063597
Inclination3.0351°
RAAN83.3794°
Arg. of periapsis256.3024°
True anomaly175.61074°
Mean anomaly175.5547°
Eccentric anomaly175.58276°
Mean motion0.24707 °/min
BSTARUnknown
Orbital period1457.08 mins
Loading maneuver chart data...
Loading historical data...
Loading historical data...
Loading historical data...
Loading historical data...
Loading historical data...
Loading historical data...
Loading historical data...
Other satellites on launch #18 in the year 2006 (2006-05-24 UTC)

GOES 13 Visibility forecast

Observer location: undefined°, undefined

Span
Click to sort rows by Start time (UTC) header in descending order
Start Az.
Max El. time (UTC)
Max El. Az.
Max El.
End time (UTC)
End Az.
1440 mins2024-11-21 06:37:46.718Z241.277° WSW2024-11-21 16:13:46.718Z247.47° WSW19.21°2024-11-22 06:37:46.718Z245.421° WSW
|